[[{"header":{"parameterUnit":"m.s-1","parameterCategory":1,"la1":30.2991,"la2":30.254,"lo1":-89.0895,"lo2":-89.0444,"dy":0.0017,"dx":0.0017,"nx":28,"ny":28,"refTime":"2023-10-07T03:00:00:Z","depth":0,"parameterNumber":2,"parameterNumberName":"U-component_of_WINDS"},"data":[0,0,0,0,0,0,0,0,0,0,0,0,0,0,0,0,0,0,0,0,0,0,0,0,0,0,0,0,0,0,0,0,0,0,0,0,0,0,0,0,0,0,0,0,0,0,0,0,0,0,0,0,0,0,0,0,0,0,-1.4867,-1.4867,0,-1.4912,-1.4912,-1.4913,-1.4875,-1.4874,-1.4872,-1.4871,-1.4918,-1.492,-1.4923,0,0,0,0,0,0,0,0,0,0,0,0,0,-1.4747,-1.4749,-1.4867,-1.4867,-1.4868,-1.4912,-1.4912,-1.4913,-1.4876,-1.4874,-1.4872,-1.487,-1.4917,-1.492,-1.4923,0,0,0,0,0,0,0,0,0,0,0,0,0,-1.4796,-1.475,-1.4866,-1.4854,-1.4854,-1.4912,-1.4913,-1.4913,-1.4876,-1.4874,-1.4871,-1.4869,-1.4916,-1.492,-1.4924,-1.4996,0,0,-1.4936,-1.4938,0,0,0,0,0,0,0,0,-1.4794,-1.4801,-1.4856,-1.4855,-1.4855,-1.4886,-1.4888,-1.4941,-1.4877,-1.4868,-1.4871,-1.4868,-1.4909,-1.4914,-1.4927,-1.4999,-1.5001,-1.4937,-1.4939,-1.4941,-1.4942,0,0,0,0,0,0,0,-1.479,-1.4799,-1.4885,-1.4856,-1.4856,-1.4846,-1.4851,-1.4898,-1.4901,-1.4868,-1.4866,-1.4871,-1.4908,-1.4923,-1.4928,-1.5001,-1.4937,-1.494,-1.4943,-1.4944,-1.5134,-1.5136,0,0,0,0,0,0,-1.4788,-1.4796,-1.4883,-1.4886,-1.4818,-1.4851,-1.4855,-1.4878,-1.49,-1.4902,-1.4873,-1.487,-1.4918,-1.4923,-1.493,-1.5016,-1.4941,-1.4945,-1.4947,-1.5131,-1.5134,-1.5137,0,0,0,0,0,0,-1.4786,-1.4796,-1.4881,-1.484,-1.485,-1.4855,-1.4881,-1.488,-1.4895,-1.4904,-1.4905,-1.4888,-1.4916,-1.4924,-1.498,-1.5018,-1.4947,-1.495,-1.5128,-1.5132,-1.5136,-1.5191,0,0,0,0,0,0,-1.4782,-1.4796,-1.4824,-1.4841,-1.4853,-1.4931,-1.4883,-1.4883,-1.4902,-1.4898,-1.4918,-1.492,-1.4915,-1.4974,-1.4984,-1.5022,-1.4953,-1.5125,-1.513,-1.5135,-1.5185,-1.5196,-1.5205,0,0,0,0,0,-1.4778,-1.4837,-1.4825,-1.4836,-1.4888,-1.4934,-1.494,-1.4933,-1.4906,-1.4934,-1.4939,-1.4919,-1.5011,-1.498,-1.4991,-1.5031,-1.5123,-1.5129,-1.5134,-1.5181,-1.5194,-1.5204,0,0,0,0,0,0,-1.4825,-1.4839,-1.4826,-1.4893,-1.4912,-1.4927,-1.4963,-1.4947,-1.4975,-1.4969,-1.4959,-1.4964,-1.5024,-1.5032,-1.4997,-1.5102,-1.5062,-1.5071,-1.5094,-1.5106,-1.5116,-1.5113,-1.4957,0,0,0,0,0,-1.4842,-1.4878,-1.4889,-1.4947,-1.4957,-1.4958,-1.4978,-1.4971,-1.499,-1.4999,-1.5008,-1.5028,-1.5062,-1.5084,-1.5115,-1.5185,-1.519,-1.5218,-1.5228,-1.5235,-1.5243,-1.5281,-1.5294,-1.5156,-1.5156,-1.5156,0,0,-1.488,-1.4892,-1.4916,-1.4956,-1.4971,-1.5008,-1.4965,-1.5007,-1.5035,-1.5005,-1.5059,-1.5066,-1.5088,-1.5151,-1.518,-1.5161,-1.5282,-1.5243,-1.5249,-1.5253,-1.5288,-1.5302,-1.5313,-1.516,-1.516,-1.5159,0,0,-1.4968,-1.4981,-1.503,-1.5045,-1.5067,-1.5067,-1.5078,-1.5095,-1.5099,-1.5153,-1.5131,-1.5163,-1.5221,-1.5238,-1.5254,-1.5346,-1.5328,-1.5356,-1.5407,-1.5444,-1.5455,-1.5464,-1.5498,-1.551,-1.5363,-1.5363,-1.5363,0,-1.5012,-1.5068,-1.5058,-1.5101,-1.5119,-1.5093,-1.5143,-1.5158,-1.5189,-1.5202,-1.5179,-1.5251,-1.5263,-1.5331,-1.5353,-1.5366,-1.538,-1.5355,-1.5454,-1.5463,-1.5472,-1.5504,-1.5517,-1.5367,-1.5366,-1.5366,-1.5366,0,-1.5121,-1.516,-1.5197,-1.5228,-1.525,-1.5297,-1.5293,-1.5317,-1.5307,-1.5309,-1.5364,-1.5377,-1.5411,-1.5426,-1.5417,-1.5491,-1.5479,-1.5455,-1.5416,-1.5489,-1.5519,-1.5531,-1.5371,-1.537,-1.5369,-1.5368,0,0,-1.5242,-1.5265,-1.5279,-1.5292,-1.5313,-1.5343,-1.5388,-1.542,-1.5441,-1.5462,-1.55,-1.5549,-1.5527,-1.5545,-1.5537,-1.5569,-1.5642,-1.5541,-1.5542,-1.5561,-1.5725,-1.5744,-1.5759,-1.5629,-1.5631,-1.5633,-1.5724,0,-1.5332,-1.541,-1.5402,-1.5476,-1.5512,-1.5486,-1.5525,-1.5542,-1.5545,-1.5575,-1.5578,-1.5613,-1.5581,-1.5591,-1.5622,-1.5627,-1.5675,-1.5619,-1.5665,-1.5667,-1.5662,-1.5774,-1.5795,-1.588,-1.5736,-1.5737,-1.5739,0,-1.5448,-1.5474,-1.5552,-1.5567,-1.5582,-1.5617,-1.5645,-1.5675,-1.5693,-1.5692,-1.5712,-1.5698,-1.5742,-1.57,-1.5761,-1.5724,-1.5741,-1.5746,-1.5749,-1.5755,-1.5709,-1.5785,-1.5907,-1.592,-1.5757,-1.5756,-1.5754,0,-1.553,-1.5584,-1.5637,-1.5649,-1.5668,-1.5693,-1.5702,-1.5718,-1.5738,-1.5762,-1.5775,-1.5804,-1.5821,-1.5844,-1.5838,-1.5808,-1.5901,-1.5858,-1.5902,-1.5903,-1.5925,-1.5924,-1.6054,-1.5933,-1.5933,-1.5933,-1.5933,0,-1.5633,-1.5682,-1.5674,-1.5708,-1.5762,-1.575,-1.5804,-1.581,-1.5824,-1.5857,-1.5836,-1.5868,-1.5857,-1.5889,-1.5884,-1.5936,-1.5943,-1.5944,-1.5943,-1.5947,-1.5947,-1.596,-1.5955,-1.5936,-1.5935,-1.5935,-1.5934,0,-1.5735,-1.5732,-1.5789,-1.5801,-1.5805,-1.5844,-1.5855,-1.5886,-1.5886,-1.5929,-1.5938,-1.5938,-1.5974,-1.5969,-1.6009,-1.6006,-1.6071,-1.6061,-1.6065,-1.6063,-1.6108,-1.6105,-1.6252,-1.6271,-1.6137,-1.6138,-1.6139,0,-1.5802,-1.5839,-1.5855,-1.5876,-1.5886,-1.592,-1.594,-1.5929,-1.5951,-1.5974,-1.6002,-1.6035,-1.6062,-1.612,-1.6124,-1.6154,-1.6146,-1.6195,-1.615,-1.6153,-1.6148,-1.6147,-1.6151,-1.6205,-1.6206,-1.6208,-1.6209,0,-1.5921,-1.5917,-1.5946,-1.5975,-1.5999,-1.6021,-1.6041,-1.606,-1.6051,-1.6076,-1.6112,-1.6132,-1.6172,-1.6206,-1.6234,-1.6242,-1.6225,-1.6222,-1.6234,-1.624,-1.6242,-1.6243,-1.6091,-1.622,-1.6218,-1.6218,-1.6217,-1.6217,-1.6008,-1.604,-1.6056,-1.6089,-1.6103,-1.6122,-1.6152,-1.6155,-1.6184,-1.6217,-1.6208,-1.6249,-1.6265,-1.63,-1.6312,-1.6343,-1.6325,-1.6342,-1.6347,-1.6352,-1.6358,-1.6235,-1.6348,-1.6348,-1.6347,-1.6347,-1.6347,0,-1.6128,-1.6136,-1.6167,-1.6195,-1.6221,-1.62,-1.6221,-1.6244,-1.628,-1.6297,-1.6323,-1.6364,-1.6396,-1.6401,-1.6431,-1.6456,-1.6448,-1.6464,-1.6463,-1.6466,-1.6372,-1.6359,-1.647,-1.647,-1.647,-1.647,-1.647,-1.647,-1.6193,-1.6246,-1.6244,-1.6303,-1.631,-1.635,-1.6364,-1.6381,-1.6394,-1.6441,-1.6467,-1.647,-1.6482,-1.6513,-1.6541,-1.6542,-1.6554,-1.6574,-1.6572,-1.6484,-1.6472,-1.6461,-1.6449,-1.6577,-1.6577,-1.6663,-1.6664,-1.6665]},{"header":{"parameterUnit":"m.s-1","parameterCategory":1,"la1":30.2991,"la2":30.254,"lo1":-89.0895,"lo2":-89.0444,"dy":0.0017,"dx":0.0017,"nx":28,"ny":28,"refTime":"2023-10-07T03:00:00:Z","depth":0,"parameterNumber":3,"parameterNumberName":"V-component_of_WINDS"},"data":[0,0,0,0,0,0,0,0,0,0,0,0,0,0,0,0,0,0,0,0,0,0,0,0,0,0,0,0,0,0,0,0,0,0,0,0,0,0,0,0,0,0,0,0,0,0,0,0,0,0,0,0,0,0,0,0,0,0,-7.4137,-7.4138,0,-7.4244,-7.4245,-7.4247,-7.4163,-7.4159,-7.4156,-7.4152,-7.4256,-7.4262,-7.4268,0,0,0,0,0,0,0,0,0,0,0,0,0,-7.3852,-7.3857,-7.4136,-7.4138,-7.4139,-7.4244,-7.4245,-7.4247,-7.4163,-7.4159,-7.4155,-7.415,-7.4254,-7.4261,-7.4268,0,0,0,0,0,0,0,0,0,0,0,0,0,-7.3969,-7.3859,-7.4136,-7.411,-7.4109,-7.4244,-7.4245,-7.4247,-7.4164,-7.4159,-7.4153,-7.4148,-7.4251,-7.426,-7.4269,-7.4433,0,0,-7.4297,-7.4301,0,0,0,0,0,0,0,0,-7.3962,-7.3979,-7.4113,-7.4112,-7.4111,-7.4185,-7.4183,-7.4309,-7.4166,-7.4143,-7.4152,-7.4146,-7.4236,-7.4246,-7.4278,-7.4438,-7.4443,-7.4298,-7.4304,-7.4308,-7.431,0,0,0,0,0,0,0,-7.3954,-7.3974,-7.4179,-7.4115,-7.4114,-7.4091,-7.4102,-7.4207,-7.4218,-7.4145,-7.4139,-7.4153,-7.4234,-7.4269,-7.428,-7.4444,-7.4298,-7.4306,-7.4312,-7.4315,-7.4744,-7.4749,0,0,0,0,0,0,-7.395,-7.3968,-7.4175,-7.4182,-7.4022,-7.4101,-7.4112,-7.4166,-7.4217,-7.4219,-7.4158,-7.4149,-7.4256,-7.4269,-7.4283,-7.4478,-7.4307,-7.4316,-7.4321,-7.4738,-7.4745,-7.4751,0,0,0,0,0,0,-7.3944,-7.3969,-7.4171,-7.4074,-7.4098,-7.4111,-7.4172,-7.4171,-7.4206,-7.4227,-7.4228,-7.4192,-7.4253,-7.427,-7.4397,-7.4481,-7.432,-7.4328,-7.4731,-7.474,-7.4748,-7.4871,0,0,0,0,0,0,-7.3936,-7.3967,-7.4032,-7.4076,-7.4103,-7.4286,-7.4177,-7.4177,-7.4223,-7.4212,-7.4259,-7.4261,-7.425,-7.4384,-7.4406,-7.449,-7.4336,-7.4723,-7.4735,-7.4745,-7.4859,-7.4882,-7.4902,0,0,0,0,0,-7.3926,-7.406,-7.4035,-7.4061,-7.4184,-7.4291,-7.4306,-7.4292,-7.423,-7.4293,-7.4307,-7.426,-7.4468,-7.4397,-7.4422,-7.451,-7.4718,-7.4732,-7.4744,-7.4849,-7.4878,-7.4902,0,0,0,0,0,0,-7.4023,-7.4066,-7.4038,-7.4191,-7.4238,-7.4276,-7.4356,-7.4323,-7.4387,-7.4374,-7.4352,-7.4363,-7.4496,-7.4515,-7.4436,-7.4671,-7.4583,-7.4601,-7.4654,-7.4681,-7.4703,-7.4695,-7.4343,0,0,0,0,0,-7.4063,-7.4148,-7.4179,-7.4311,-7.4336,-7.4343,-7.4388,-7.4374,-7.4421,-7.4439,-7.4462,-7.4507,-7.4583,-7.4633,-7.4703,-7.4861,-7.4869,-7.4934,-7.4955,-7.4973,-7.499,-7.5074,-7.5103,-7.4795,-7.4795,-7.4794,0,0,-7.4144,-7.4178,-7.4233,-7.4332,-7.4366,-7.4453,-7.436,-7.4455,-7.4519,-7.4453,-7.4575,-7.4593,-7.4642,-7.4785,-7.4849,-7.4805,-7.5077,-7.499,-7.5004,-7.5011,-7.5091,-7.512,-7.5146,-7.4804,-7.4802,-7.4801,0,0,-7.4338,-7.4373,-7.4486,-7.4524,-7.4578,-7.4582,-7.4609,-7.4653,-7.4663,-7.4785,-7.4738,-7.4811,-7.4942,-7.4979,-7.5015,-7.5224,-7.5182,-7.5247,-7.536,-7.5443,-7.5467,-7.5488,-7.5563,-7.5589,-7.5263,-7.5263,-7.5264,0,-7.4432,-7.4564,-7.4548,-7.4649,-7.4693,-7.4639,-7.4753,-7.4789,-7.4863,-7.4894,-7.4844,-7.5008,-7.5037,-7.5188,-7.5239,-7.527,-7.5299,-7.5242,-7.5465,-7.5487,-7.5506,-7.5577,-7.5604,-7.5271,-7.527,-7.5269,-7.5268,0,-7.4677,-7.4769,-7.4853,-7.4929,-7.4983,-7.5089,-7.5088,-7.5143,-7.5124,-7.5132,-7.5256,-7.529,-7.5366,-7.5401,-7.5382,-7.5549,-7.552,-7.5469,-7.5379,-7.5543,-7.5609,-7.5636,-7.5282,-7.5279,-7.5277,-7.5275,0,0,-7.4934,-7.5001,-7.5033,-7.5066,-7.5123,-7.5192,-7.5295,-7.5373,-7.5421,-7.5473,-7.5558,-7.567,-7.5623,-7.5664,-7.5648,-7.5721,-7.5883,-7.566,-7.566,-7.57,-7.6069,-7.6109,-7.614,-7.5857,-7.5862,-7.5866,-7.6065,0,-7.5131,-7.5314,-7.5303,-7.5474,-7.5558,-7.5508,-7.5597,-7.5641,-7.5651,-7.5722,-7.5731,-7.5811,-7.5743,-7.5767,-7.5837,-7.5849,-7.5957,-7.5834,-7.5934,-7.5938,-7.5924,-7.6174,-7.6216,-7.6403,-7.6091,-7.6095,-7.6098,0,-7.5385,-7.5449,-7.5629,-7.5674,-7.5708,-7.579,-7.5859,-7.5928,-7.5975,-7.5977,-7.6024,-7.5996,-7.6098,-7.6007,-7.6146,-7.6063,-7.6103,-7.6115,-7.6122,-7.6131,-7.6028,-7.619,-7.6462,-7.649,-7.6139,-7.6135,-7.6132,0,-7.5555,-7.5686,-7.5811,-7.5841,-7.5896,-7.5954,-7.5979,-7.6021,-7.6069,-7.6128,-7.6159,-7.6229,-7.6267,-7.6321,-7.6313,-7.6247,-7.6455,-7.6363,-7.6458,-7.6459,-7.6504,-7.6502,-7.6787,-7.653,-7.653,-7.6529,-7.6529,0,-7.5776,-7.5888,-7.5889,-7.5965,-7.6089,-7.6074,-7.6196,-7.6214,-7.6252,-7.633,-7.629,-7.6363,-7.6347,-7.642,-7.6413,-7.653,-7.6547,-7.655,-7.6547,-7.6554,-7.6554,-7.658,-7.6567,-7.6537,-7.6535,-7.6534,-7.6532,0,-7.5987,-7.5992,-7.6125,-7.6167,-7.618,-7.6269,-7.6303,-7.6374,-7.6381,-7.648,-7.6502,-7.6512,-7.6595,-7.6592,-7.6686,-7.6681,-7.6825,-7.6806,-7.681,-7.6806,-7.6902,-7.6893,-7.7214,-7.7256,-7.6972,-7.6975,-7.6977,0,-7.6128,-7.6214,-7.6265,-7.6316,-7.6345,-7.6427,-7.6475,-7.6463,-7.6515,-7.6576,-7.664,-7.672,-7.6783,-7.6918,-7.6932,-7.7003,-7.6986,-7.7094,-7.6996,-7.7001,-7.6988,-7.6983,-7.6991,-7.7113,-7.7116,-7.7119,-7.7121,0,-7.6378,-7.6376,-7.6449,-7.6524,-7.6583,-7.664,-7.6692,-7.6735,-7.6729,-7.6788,-7.6875,-7.6924,-7.7021,-7.71,-7.7169,-7.7191,-7.7155,-7.7151,-7.7177,-7.7185,-7.7184,-7.7186,-7.6862,-7.7144,-7.7142,-7.714,-7.7139,-7.7138,-7.6558,-7.6632,-7.668,-7.6763,-7.6801,-7.6851,-7.6921,-7.6937,-7.7009,-7.7089,-7.7076,-7.7173,-7.7216,-7.7305,-7.7334,-7.7408,-7.7369,-7.7407,-7.7416,-7.7426,-7.7437,-7.7173,-7.742,-7.7419,-7.7418,-7.7418,-7.7417,0,-7.6806,-7.6835,-7.6911,-7.6987,-7.7051,-7.7014,-7.7069,-7.7125,-7.7211,-7.7256,-7.732,-7.7418,-7.7495,-7.7516,-7.759,-7.7644,-7.7629,-7.7664,-7.766,-7.7666,-7.7467,-7.7437,-7.7675,-7.7675,-7.7675,-7.7675,-7.7675,-7.7675,-7.6942,-7.7066,-7.707,-7.7211,-7.7237,-7.7334,-7.7369,-7.7414,-7.745,-7.7563,-7.7627,-7.7641,-7.7676,-7.7752,-7.782,-7.7824,-7.7853,-7.7894,-7.7891,-7.7705,-7.768,-7.7655,-7.7627,-7.7901,-7.7901,-7.8084,-7.8086,-7.8087]}]]